User: anonymous   Login
Location: Irma
(52.9170°N, 111.2330°W)
Time: 22:55:38
(UTC-06:00)
Language:

Meteor 1-24 Rocket - Orbit

View from above orbital plane
View from above orbital plane
View from above satellite
View from above satellite

Ground track
Ground track

The orbit data is extracted from the following two-line orbital elements,

1 08800U 76032B   16273.51087288  .00000040  00000-0  14860-4 0  9999
2 08800  81.2484 110.9336 0094060 202.3243 157.3823 14.10077400 81443
Epoch (UTC): 29 September 2016 12:15:39
Eccentricity: 0.0094060
inclination: 81.2484°
perigee height: 791 km
apogee height: 927 km
right ascension of ascending node: 110.9336°
argument of perigee: 202.3243°
revolutions per day: 14.10077400
mean anomaly at epoch: 157.3823°
orbit number at epoch: 8144

The dashed part of the orbit path shows where the satellite is in the earth's shadow,  

DLR